Location: Lussas
(44.6119°N, 4.4726°E)
Time: 23:04:38
(UTC+00:00)

SAR-Lupe-1 - Pass Details

Date: 16 April 2021
Orbit: 482 x 483 km, 98.2° (Epoch: 30 March)

Event Time Altitude Azimuth Distance (km) Brightness Sun altitude
Rises 18:51:25 0° 14° (NNE) 2,559 7.8 -4.7°
Reaches altitude 10° 18:53:30 10° 16° (NNE) 1,674 6.9 -5.1°
Maximum altitude 18:57:06 77° 103° (ESE) 502 4.0 -5.7°
Drops below altitude 10° 19:00:39 10° 190° (S) 1,659 6.7 -6.3°
Sets 19:02:42 0° 192° (SSW) 2,533 7.6 -6.6°
